START_TIME,STEP,MOV.,M35,t_acc.,PL05,t_acc.,PL06,t_acc.,PL07,t_acc.
1979-07-22 12:00:23.530 ,3,0,0.,4.8,4.,4.8,3.,4.8,5.,4.8
1979-07-22 12:00:28.330 ,3,0,0.,4.8,1.,4.8,0.,4.8,3.,4.8
1979-07-22 12:00:33.130 ,3,0,0.,4.8,4.,4.8,2.,4.8,5.,4.8
1979-07-22 12:00:37.930 ,3,0,0.,4.8,3.,4.8,2.,4.8,1.,4.8
1979-07-22 12:00:42.730 ,3,0,0.,4.8,5.,4.8,3.,4.8,2.,4.8
1979-07-22 12:00:47.530 ,2,0,0.,4.8,6.,4.8,4.,4.8,1.,4.8
1979-07-22 12:00:52.330 ,2,0,0.,4.8,10.,4.8,3.,4.8,3.,4.8
1979-07-22 12:00:57.130 ,2,0,0.,4.8,6.,4.8,1.,4.8,3.,4.8
1979-07-22 12:01:01.930 ,2,0,0.,4.8,7.,4.8,4.,4.8,0.,4.8
1979-07-22 12:01:06.730 ,2,0,0.,4.8,5.,4.8,2.,4.8,2.,4.8
1979-07-22 12:01:11.530 ,2,0,0.,4.8,4.,4.8,2.,4.8,1.,4.8
1979-07-22 12:01:16.330 ,2,0,0.,4.8,5.,4.8,2.,4.8,1.,4.8
1979-07-22 12:01:21.130 ,2,0,0.,4.8,3.,4.8,5.,4.8,2.,4.8
1979-07-22 12:01:25.930 ,2,0,0.,4.8,5.,4.8,5.,4.8,2.,4.8
1979-07-22 12:01:30.730 ,2,0,0.,4.8,2.,4.8,0.,4.8,1.,4.8
1979-07-22 12:01:35.530 ,1,0,0.,4.8,7.,4.8,5.,4.8,1.,4.8
1979-07-22 12:01:40.330 ,1,0,0.,4.8,4.,4.8,4.,4.8,0.,4.8
1979-07-22 12:01:45.130 ,1,0,2.,4.8,48.,4.8,110.,4.8,17.,4.8
1979-07-22 12:01:49.930 ,1,0,0.,4.8,44.,4.8,92.,4.8,21.,4.8
1979-07-22 12:01:54.730 ,1,0,0.,4.8,47.,4.8,64.,4.8,25.,4.8
1979-07-22 12:01:59.530 ,1,0,1.,4.8,33.,4.8,72.,4.8,25.,4.8
1979-07-22 12:02:04.330 ,1,0,0.,4.8,31.,4.8,64.,4.8,21.,4.8
1979-07-22 12:02:09.130 ,1,0,0.,4.8,21.,4.8,44.,4.8,21.,4.8
1979-07-22 12:02:13.930 ,1,0,1.,4.8,18.,4.8,40.,4.8,20.,4.8
1979-07-22 12:02:18.730 ,1,0,0.,4.8,14.,4.8,38.,4.8,19.,4.8
1979-07-22 12:02:23.530 ,0,0,0.,4.8,15.,4.8,47.,4.8,20.,4.8
1979-07-22 12:02:28.330 ,0,0,0.,4.8,10.,4.8,44.,4.8,4.,4.8
1979-07-22 12:02:33.130 ,0,0,0.,4.8,160.,4.8,768.,4.8,80.,4.8
1979-07-22 12:02:37.930 ,0,0,0.,4.8,128.,4.8,736.,4.8,76.,4.8
1979-07-22 12:02:42.730 ,0,0,0.,4.8,148.,4.8,672.,4.8,88.,4.8
1979-07-22 12:02:47.530 ,0,0,0.,4.8,176.,4.8,560.,4.8,92.,4.8
1979-07-22 12:02:52.330 ,0,0,0.,4.8,172.,4.8,512.,4.8,102.,4.8
1979-07-22 12:02:57.130 ,0,0,0.,4.8,180.,4.8,560.,4.8,104.,4.8
1979-07-22 12:03:01.930 ,0,0,0.,4.8,144.,4.8,576.,4.8,112.,4.8
1979-07-22 12:03:06.730 ,0,0,0.,4.8,160.,4.8,576.,4.8,102.,4.8
1979-07-22 12:03:11.530 ,0,0,0.,4.8,128.,4.8,640.,4.8,94.,4.8
1979-07-22 12:03:16.330 ,0,0,0.,4.8,152.,4.8,704.,4.8,96.,4.8
1979-07-22 12:03:21.130 ,0,0,0.,4.8,204.,4.8,752.,4.8,84.,4.8
1979-07-22 12:03:25.930 ,0,0,0.,4.8,264.,4.8,880.,4.8,92.,4.8
1979-07-22 12:03:30.730 ,0,0,0.,4.8,264.,4.8,928.,4.8,100.,4.8
1979-07-22 12:03:35.530 ,0,0,0.,4.8,304.,4.8,1088.,4.8,66.,4.8
1979-07-22 12:03:40.330 ,0,0,0.,4.8,288.,4.8,1088.,4.8,76.,4.8
1979-07-22 12:03:45.130 ,0,0,0.,4.8,236.,4.8,1120.,4.8,74.,4.8
1979-07-22 12:03:49.930 ,0,0,0.,4.8,224.,4.8,1024.,4.8,36.,4.8
1979-07-22 12:03:54.730 ,0,0,0.,4.8,280.,4.8,1088.,4.8,32.,4.8
1979-07-22 12:03:59.530 ,1,0,0.,4.8,360.,4.8,912.,4.8,44.,4.8
1979-07-22 12:04:04.330 ,1,0,0.,4.8,384.,4.8,880.,4.8,55.,4.8
1979-07-22 12:04:09.130 ,1,0,0.,4.8,13.,4.8,25.,4.8,12.,4.8
1979-07-22 12:04:13.930 ,1,0,1.,4.8,2.,4.8,33.,4.8,17.,4.8
1979-07-22 12:04:18.730 ,1,0,1.,4.8,10.,4.8,24.,4.8,19.,4.8
1979-07-22 12:04:23.530 ,1,0,1.,4.8,11.,4.8,19.,4.8,15.,4.8
1979-07-22 12:04:28.330 ,1,0,0.,4.8,8.,4.8,30.,4.8,14.,4.8
1979-07-22 12:04:33.130 ,1,0,0.,4.8,7.,4.8,26.,4.8,13.,4.8
1979-07-22 12:04:37.930 ,1,0,0.,4.8,7.,4.8,25.,4.8,10.,4.8
1979-07-22 12:04:42.730 ,1,0,2.,4.8,7.,4.8,28.,4.8,12.,4.8
1979-07-22 12:04:47.530 ,2,0,0.,4.8,4.,4.8,30.,4.8,14.,4.8
1979-07-22 12:04:52.330 ,2,0,0.,4.8,4.,4.8,17.,4.8,13.,4.8
1979-07-22 12:04:57.130 ,2,0,0.,4.8,7.,4.8,3.,4.8,2.,4.8
1979-07-22 12:05:01.930 ,2,0,0.,4.8,8.,4.8,3.,4.8,0.,4.8
1979-07-22 12:05:06.730 ,2,0,0.,4.8,11.,4.8,2.,4.8,2.,4.8
1979-07-22 12:05:11.530 ,2,0,0.,4.8,5.,4.8,1.,4.8,1.,4.8
1979-07-22 12:05:16.330 ,2,0,0.,4.8,5.,4.8,9.,4.8,0.,4.8
1979-07-22 12:05:21.130 ,2,0,0.,4.8,8.,4.8,1.,4.8,1.,4.8
1979-07-22 12:05:25.930 ,2,0,0.,4.8,6.,4.8,4.,4.8,3.,4.8
1979-07-22 12:05:30.730 ,2,0,0.,4.8,6.,4.8,1.,4.8,1.,4.8
1979-07-22 12:05:35.530 ,3,0,0.,4.8,7.,4.8,4.,4.8,1.,4.8
1979-07-22 12:05:40.330 ,3,0,0.,4.8,6.,4.8,2.,4.8,1.,4.8
1979-07-22 12:05:45.130 ,3,0,0.,4.8,6.,4.8,4.,4.8,0.,4.8
1979-07-22 12:05:49.930 ,3,0,0.,4.8,8.,4.8,2.,4.8,3.,4.8
1979-07-22 12:05:54.730 ,3,0,0.,4.8,7.,4.8,3.,4.8,1.,4.8
1979-07-22 12:05:59.530 ,3,0,0.,4.8,7.,4.8,2.,4.8,3.,4.8
1979-07-22 12:06:04.330 ,3,0,0.,4.8,4.,4.8,2.,4.8,3.,4.8
1979-07-22 12:06:09.130 ,3,0,0.,4.8,2.,4.8,3.,4.8,4.,4.8
1979-07-22 12:06:13.930 ,3,0,0.,4.8,4.,4.8,2.,4.8,3.,4.8
1979-07-22 12:06:18.730 ,3,0,0.,4.8,0.,4.8,3.,4.8,0.,4.8
1979-07-22 12:06:23.530 ,4,0,0.,4.8,3.,4.8,3.,4.8,3.,4.8
1979-07-22 12:06:28.330 ,4,0,0.,4.8,1.,4.8,1.,4.8,0.,4.8
1979-07-22 12:06:33.130 ,4,0,0.,4.8,3.,4.8,2.,4.8,4.,4.8
1979-07-22 12:06:37.930 ,4,0,0.,4.8,4.,4.8,2.,4.8,2.,4.8
1979-07-22 12:06:42.730 ,4,0,0.,4.8,2.,4.8,2.,4.8,2.,4.8
1979-07-22 12:06:47.530 ,4,0,0.,4.8,2.,4.8,1.,4.8,1.,4.8
1979-07-22 12:06:52.330 ,4,0,0.,4.8,3.,4.8,4.,4.8,0.,4.8
1979-07-22 12:06:57.130 ,4,0,0.,4.8,4.,4.8,1.,4.8,1.,4.8
1979-07-22 12:07:01.930 ,4,0,0.,4.8,4.,4.8,3.,4.8,1.,4.8
1979-07-22 12:07:06.730 ,4,0,0.,4.8,2.,4.8,3.,4.8,0.,4.8
1979-07-22 12:06:47.530 ,4,0,0.,4.8,2.,4.8,1.,4.8,1.,4.8
1979-07-22 12:06:52.330 ,4,0,0.,4.8,3.,4.8,4.,4.8,0.,4.8
1979-07-22 12:06:57.130 ,4,0,0.,4.8,4.,4.8,1.,4.8,1.,4.8
1979-07-22 12:07:01.930 ,4,0,0.,4.8,4.,4.8,3.,4.8,1.,4.8
1979-07-22 12:07:06.730 ,4,0,0.,4.8,2.,4.8,3.,4.8,0.,4.8
1979-07-22 12:07:11.530 ,5,0,0.,4.8,5.,4.8,3.,4.8,4.,4.8
1979-07-22 12:07:16.330 ,5,0,0.,4.8,8.,4.8,2.,4.8,2.,4.8
1979-07-22 12:07:21.130 ,5,0,0.,4.8,2.,4.8,1.,4.8,2.,4.8
1979-07-22 12:07:25.930 ,5,0,0.,4.8,4.,4.8,1.,4.8,0.,4.8
1979-07-22 12:07:30.730 ,5,0,0.,4.8,6.,4.8,4.,4.8,0.,4.8
1979-07-22 12:07:35.530 ,5,0,0.,4.8,3.,4.8,3.,4.8,0.,4.8
1979-07-22 12:07:40.330 ,5,0,0.,4.8,6.,4.8,2.,4.8,0.,4.8
1979-07-22 12:07:45.130 ,5,0,0.,4.8,5.,4.8,1.,4.8,1.,4.8
1979-07-22 12:07:49.930 ,5,0,0.,4.8,5.,4.8,0.,4.8,1.,4.8
1979-07-22 12:07:54.730 ,5,0,0.,4.8,1.,4.8,1.,4.8,0.,4.8
1979-07-22 12:07:59.530 ,6,0,0.,4.8,5.,4.8,1.,4.8,0.,4.8
1979-07-22 12:08:04.330 ,6,0,0.,4.8,2.,4.8,0.,4.8,0.,4.8
1979-07-22 12:08:09.130 ,6,0,0.,4.8,3.,4.8,2.,4.8,0.,4.8
1979-07-22 12:08:13.930 ,6,0,0.,4.8,4.,4.8,2.,4.8,2.,4.8
1979-07-22 12:08:18.730 ,6,0,0.,4.8,8.,4.8,1.,4.8,1.,4.8
1979-07-22 12:08:23.530 ,6,0,0.,4.8,1.,4.8,1.,4.8,2.,4.8
1979-07-22 12:08:28.330 ,6,0,0.,4.8,2.,4.8,0.,4.8,2.,4.8
1979-07-22 12:08:33.130 ,6,0,0.,4.8,4.,4.8,5.,4.8,0.,4.8
1979-07-22 12:08:37.930 ,6,0,0.,4.8,2.,4.8,2.,4.8,2.,4.8
1979-07-22 12:08:42.730 ,6,0,0.,4.8,7.,4.8,2.,4.8,0.,4.8
1979-07-22 12:09:35.530 ,0,0,0.,4.8,1.,4.8,0.,4.8,0.,4.8
1979-07-22 12:09:40.330 ,0,0,0.,4.8,0.,4.8,0.,4.8,0.,4.8
1979-07-22 12:09:45.130 ,0,0,0.,4.8,1.,4.8,0.,4.8,0.,4.8
1979-07-22 12:09:49.930 ,0,0,0.,4.8,0.,4.8,0.,4.8,0.,4.8
1979-07-22 12:09:54.730 ,0,0,0.,4.8,0.,4.8,0.,4.8,1.,4.8
1979-07-22 12:09:59.530 ,0,0,0.,4.8,0.,4.8,0.,4.8,0.,4.8
1979-07-22 12:10:04.330 ,0,0,0.,4.8,0.,4.8,0.,4.8,0.,4.8
1979-07-22 12:10:09.130 ,0,0,0.,4.8,0.,4.8,0.,4.8,0.,4.8
1979-07-22 12:10:13.930 ,0,0,0.,4.8,0.,4.8,0.,4.8,1.,4.8
1979-07-22 12:10:18.730 ,0,0,0.,4.8,0.,4.8,0.,4.8,0.,4.8
1979-07-22 12:10:23.530 ,6,0,0.,4.8,0.,4.8,0.,4.8,0.,4.8
1979-07-22 12:10:28.330 ,6,0,0.,4.8,0.,4.8,0.,4.8,0.,4.8
1979-07-22 12:10:33.130 ,6,0,0.,4.8,4.,4.8,1.,4.8,0.,4.8
1979-07-22 12:10:37.930 ,6,0,0.,4.8,6.,4.8,2.,4.8,1.,4.8
1979-07-22 12:10:42.730 ,6,0,0.,4.8,3.,4.8,4.,4.8,0.,4.8
1979-07-22 12:10:47.530 ,6,0,0.,4.8,6.,4.8,2.,4.8,0.,4.8
1979-07-22 12:10:52.330 ,6,0,0.,4.8,6.,4.8,3.,4.8,3.,4.8
1979-07-22 12:10:57.130 ,6,0,0.,4.8,2.,4.8,5.,4.8,1.,4.8
1979-07-22 12:11:01.930 ,6,0,0.,4.8,5.,4.8,3.,4.8,0.,4.8
1979-07-22 12:11:06.730 ,6,0,0.,4.8,4.,4.8,1.,4.8,2.,4.8
1979-07-22 12:11:11.530 ,5,0,0.,4.8,3.,4.8,2.,4.8,1.,4.8
1979-07-22 12:11:16.330 ,5,0,0.,4.8,2.,4.8,1.,4.8,0.,4.8
1979-07-22 12:11:21.130 ,5,0,0.,4.8,3.,4.8,2.,4.8,3.,4.8
1979-07-22 12:11:25.930 ,5,0,0.,4.8,6.,4.8,6.,4.8,0.,4.8
1979-07-22 12:11:30.730 ,5,0,0.,4.8,2.,4.8,2.,4.8,1.,4.8
1979-07-22 12:11:35.530 ,5,0,0.,4.8,5.,4.8,2.,4.8,1.,4.8
1979-07-22 12:11:40.330 ,5,0,0.,4.8,4.,4.8,3.,4.8,0.,4.8
1979-07-22 12:11:45.130 ,5,0,0.,4.8,2.,4.8,5.,4.8,2.,4.8
1979-07-22 12:11:49.930 ,5,0,0.,4.8,3.,4.8,4.,4.8,1.,4.8
1979-07-22 12:11:54.730 ,5,0,0.,4.8,4.,4.8,2.,4.8,3.,4.8
1979-07-22 12:11:59.530 ,4,0,0.,4.8,5.,4.8,3.,4.8,0.,4.8
1979-07-22 12:12:04.330 ,4,0,0.,4.8,2.,4.8,1.,4.8,3.,4.8
1979-07-22 12:12:09.130 ,4,0,0.,4.8,7.,4.8,4.,4.8,1.,4.8
1979-07-22 12:12:13.930 ,4,0,0.,4.8,8.,4.8,3.,4.8,0.,4.8
1979-07-22 12:12:18.730 ,4,0,0.,4.8,4.,4.8,3.,4.8,1.,4.8
1979-07-22 12:12:23.530 ,4,0,0.,4.8,6.,4.8,4.,4.8,0.,4.8
1979-07-22 12:12:28.330 ,4,0,0.,4.8,2.,4.8,0.,4.8,1.,4.8
1979-07-22 12:12:33.130 ,4,0,0.,4.8,5.,4.8,3.,4.8,1.,4.8
1979-07-22 12:12:37.930 ,4,0,0.,4.8,2.,4.8,1.,4.8,1.,4.8
1979-07-22 12:12:42.730 ,4,0,0.,4.8,2.,4.8,2.,4.8,1.,4.8
1979-07-22 12:12:47.530 ,3,0,0.,4.8,5.,4.8,2.,4.8,1.,4.8
1979-07-22 12:12:52.330 ,3,0,0.,4.8,2.,4.8,3.,4.8,3.,4.8
1979-07-22 12:12:57.130 ,3,0,0.,4.8,3.,4.8,7.,4.8,1.,4.8
1979-07-22 12:13:01.930 ,3,0,0.,4.8,1.,4.8,2.,4.8,3.,4.8
1979-07-22 12:13:06.730 ,3,0,0.,4.8,3.,4.8,2.,4.8,1.,4.8
1979-07-22 12:13:11.530 ,3,0,0.,4.8,5.,4.8,1.,4.8,1.,4.8
1979-07-22 12:13:16.330 ,3,0,0.,4.8,6.,4.8,2.,4.8,1.,4.8
1979-07-22 12:13:21.130 ,3,0,0.,4.8,2.,4.8,3.,4.8,3.,4.8
1979-07-22 12:13:25.930 ,3,0,0.,4.8,7.,4.8,4.,4.8,4.,4.8
1979-07-22 12:13:30.730 ,3,0,0.,4.8,5.,4.8,4.,4.8,4.,4.8
1979-07-22 12:13:35.530 ,2,0,0.,4.8,9.,4.8,2.,4.8,2.,4.8
1979-07-22 12:13:40.330 ,2,0,0.,4.8,3.,4.8,1.,4.8,0.,4.8
1979-07-22 12:13:45.130 ,2,0,0.,4.8,5.,4.8,1.,4.8,1.,4.8
1979-07-22 12:13:49.930 ,2,0,0.,4.8,8.,4.8,2.,4.8,4.,4.8
1979-07-22 12:13:54.730 ,2,0,0.,4.8,6.,4.8,9.,4.8,2.,4.8
1979-07-22 12:13:59.530 ,2,0,0.,4.8,3.,4.8,2.,4.8,4.,4.8
1979-07-22 12:14:04.330 ,2,0,0.,4.8,11.,4.8,3.,4.8,2.,4.8
1979-07-22 12:14:09.130 ,2,0,0.,4.8,3.,4.8,0.,4.8,4.,4.8
1979-07-22 12:14:13.930 ,2,0,0.,4.8,4.,4.8,1.,4.8,1.,4.8
1979-07-22 12:14:18.730 ,2,0,0.,4.8,3.,4.8,5.,4.8,1.,4.8
1979-07-22 12:14:23.530 ,1,0,0.,4.8,5.,4.8,2.,4.8,3.,4.8
1979-07-22 12:14:28.330 ,1,0,0.,4.8,9.,4.8,5.,4.8,3.,4.8
1979-07-22 12:14:33.130 ,1,0,,0,,0,,0,,0
1979-07-22 12:14:37.930 ,1,0,0.,4.8,4.,4.8,4.,4.8,3.,4.8
1979-07-22 12:14:42.730 ,1,0,1.,4.8,5.,4.8,1.,4.8,3.,4.8
1979-07-22 12:14:47.530 ,1,0,,0,,0,,0,,0
1979-07-22 12:14:52.330 ,1,0,0.,4.8,3.,4.8,0.,4.8,1.,4.8
1979-07-22 12:14:57.130 ,1,0,0.,4.8,4.,4.8,3.,4.8,3.,4.8
1979-07-22 12:15:01.930 ,1,0,0.,4.8,13.,4.8,2.,4.8,1.,4.8
1979-07-22 12:15:06.730 ,1,0,0.,4.8,7.,4.8,2.,4.8,2.,4.8
1979-07-22 12:15:11.530 ,0,0,0.,4.8,4.,4.8,2.,4.8,2.,4.8
1979-07-22 12:15:16.330 ,0,0,0.,4.8,2.,4.8,3.,4.8,2.,4.8
1979-07-22 12:15:21.130 ,0,0,0.,4.8,1.,4.8,10.,4.8,2.,4.8
1979-07-22 12:15:25.930 ,0,0,0.,4.8,2.,4.8,13.,4.8,1.,4.8
1979-07-22 12:15:30.730 ,0,0,0.,4.8,4.,4.8,8.,4.8,2.,4.8
1979-07-22 12:15:35.530 ,0,0,0.,4.8,2.,4.8,12.,4.8,0.,4.8
1979-07-22 12:15:40.330 ,0,0,0.,4.8,5.,4.8,13.,4.8,1.,4.8
1979-07-22 12:15:45.130 ,0,0,0.,4.8,4.,4.8,8.,4.8,0.,4.8
1979-07-22 12:15:49.930 ,0,0,0.,4.8,6.,4.8,7.,4.8,1.,4.8
1979-07-22 12:15:54.730 ,0,0,0.,4.8,4.,4.8,10.,4.8,1.,4.8
1979-07-22 12:15:59.530 ,0,0,0.,4.8,6.,4.8,13.,4.8,1.,4.8
1979-07-22 12:16:04.330 ,0,0,0.,4.8,4.,4.8,24.,4.8,1.,4.8
1979-07-22 12:16:09.130 ,0,0,0.,4.8,5.,4.8,22.,4.8,2.,4.8
1979-07-22 12:16:13.930 ,0,0,0.,4.8,1.,4.8,12.,4.8,0.,4.8
1979-07-22 12:16:18.730 ,0,0,0.,4.8,5.,4.8,14.,4.8,2.,4.8
1979-07-22 12:16:23.530 ,0,0,0.,4.8,10.,4.8,20.,4.8,0.,4.8
1979-07-22 12:16:28.330 ,0,0,0.,4.8,6.,4.8,8.,4.8,0.,4.8
1979-07-22 12:16:33.130 ,0,0,0.,4.8,6.,4.8,16.,4.8,1.,4.8
1979-07-22 12:16:37.930 ,0,0,0.,4.8,3.,4.8,18.,4.8,1.,4.8
1979-07-22 12:16:42.730 ,0,0,0.,4.8,4.,4.8,21.,4.8,1.,4.8
1979-07-22 12:16:47.530 ,1,0,0.,4.8,3.,4.8,15.,4.8,0.,4.8
1979-07-22 12:16:52.330 ,1,0,0.,4.8,4.,4.8,16.,4.8,1.,4.8
1979-07-22 12:16:57.130 ,1,0,0.,4.8,4.,4.8,3.,4.8,0.,4.8
1979-07-22 12:17:01.930 ,1,0,0.,4.8,3.,4.8,4.,4.8,3.,4.8
1979-07-22 12:17:06.730 ,1,0,0.,4.8,2.,4.8,3.,4.8,2.,4.8
1979-07-22 12:17:11.530 ,1,0,0.,4.8,8.,4.8,2.,4.8,1.,4.8
1979-07-22 12:17:16.330 ,1,0,0.,4.8,1.,4.8,3.,4.8,0.,4.8
1979-07-22 12:17:21.130 ,1,0,0.,4.8,3.,4.8,0.,4.8,3.,4.8
1979-07-22 12:17:25.930 ,1,0,0.,4.8,4.,4.8,1.,4.8,3.,4.8
1979-07-22 12:17:30.730 ,1,0,0.,4.8,1.,4.8,1.,4.8,2.,4.8
1979-07-22 12:17:35.530 ,2,0,0.,4.8,5.,4.8,2.,4.8,3.,4.8
1979-07-22 12:17:40.330 ,2,0,0.,4.8,6.,4.8,5.,4.8,1.,4.8
1979-07-22 12:17:45.130 ,2,0,0.,4.8,5.,4.8,3.,4.8,2.,4.8
1979-07-22 12:17:49.930 ,2,0,0.,4.8,5.,4.8,0.,4.8,3.,4.8
1979-07-22 12:17:54.730 ,2,0,0.,4.8,6.,4.8,5.,4.8,1.,4.8
1979-07-22 12:17:59.530 ,2,0,0.,4.8,2.,4.8,1.,4.8,4.,4.8
1979-07-22 12:18:04.330 ,2,0,0.,4.8,5.,4.8,3.,4.8,1.,4.8
1979-07-22 12:18:09.130 ,2,0,0.,4.8,6.,4.8,1.,4.8,0.,4.8
1979-07-22 12:18:13.930 ,2,0,0.,4.8,6.,4.8,3.,4.8,2.,4.8
1979-07-22 12:18:18.730 ,2,0,0.,4.8,7.,4.8,2.,4.8,1.,4.8
1979-07-22 12:18:23.530 ,3,0,0.,4.8,7.,4.8,3.,4.8,2.,4.8
1979-07-22 12:18:28.330 ,3,0,0.,4.8,4.,4.8,2.,4.8,1.,4.8
1979-07-22 12:18:33.130 ,3,0,0.,4.8,3.,4.8,3.,4.8,3.,4.8
1979-07-22 12:18:37.930 ,3,0,0.,4.8,2.,4.8,1.,4.8,2.,4.8
1979-07-22 12:18:42.730 ,3,0,0.,4.8,4.,4.8,3.,4.8,1.,4.8
1979-07-22 12:18:47.530 ,3,0,0.,4.8,4.,4.8,2.,4.8,2.,4.8
1979-07-22 12:18:52.330 ,3,0,0.,4.8,6.,4.8,3.,4.8,0.,4.8
1979-07-22 12:18:57.130 ,3,0,0.,4.8,2.,4.8,2.,4.8,2.,4.8
1979-07-22 12:19:01.930 ,3,0,0.,4.8,11.,4.8,3.,4.8,0.,4.8
1979-07-22 12:19:06.730 ,3,0,0.,4.8,2.,4.8,2.,4.8,2.,4.8
1979-07-22 12:19:11.530 ,4,0,0.,4.8,4.,4.8,3.,4.8,4.,4.8
1979-07-22 12:19:16.330 ,4,0,0.,4.8,3.,4.8,1.,4.8,0.,4.8
1979-07-22 12:19:21.130 ,4,0,0.,4.8,7.,4.8,5.,4.8,4.,4.8
1979-07-22 12:19:25.930 ,4,0,0.,4.8,2.,4.8,2.,4.8,2.,4.8
1979-07-22 12:19:30.730 ,4,0,0.,4.8,3.,4.8,3.,4.8,0.,4.8
1979-07-22 12:19:35.530 ,4,0,0.,4.8,7.,4.8,2.,4.8,3.,4.8
1979-07-22 12:19:40.330 ,4,0,0.,4.8,4.,4.8,2.,4.8,0.,4.8
1979-07-22 12:19:45.130 ,4,0,0.,4.8,5.,4.8,4.,4.8,1.,4.8
1979-07-22 12:19:49.930 ,4,0,0.,4.8,3.,4.8,6.,4.8,0.,4.8
1979-07-22 12:19:54.730 ,4,0,0.,4.8,8.,4.8,1.,4.8,1.,4.8
1979-07-22 12:19:59.530 ,5,0,0.,4.8,4.,4.8,1.,4.8,4.,4.8
1979-07-22 12:20:04.330 ,5,0,0.,4.8,6.,4.8,3.,4.8,1.,4.8
1979-07-22 12:20:09.130 ,5,0,0.,4.8,7.,4.8,2.,4.8,0.,4.8
1979-07-22 12:20:13.930 ,5,0,0.,4.8,3.,4.8,2.,4.8,1.,4.8
1979-07-22 12:20:18.730 ,5,0,0.,4.8,4.,4.8,0.,4.8,2.,4.8
1979-07-22 12:20:23.530 ,5,0,0.,4.8,5.,4.8,1.,4.8,3.,4.8
1979-07-22 12:20:28.330 ,5,0,0.,4.8,6.,4.8,3.,4.8,0.,4.8
1979-07-22 12:20:33.130 ,5,0,0.,4.8,5.,4.8,4.,4.8,1.,4.8
1979-07-22 12:20:37.930 ,5,0,0.,4.8,2.,4.8,1.,4.8,1.,4.8
1979-07-22 12:20:42.730 ,5,0,0.,4.8,6.,4.8,1.,4.8,3.,4.8
1979-07-22 12:20:47.530 ,6,0,0.,4.8,5.,4.8,1.,4.8,1.,4.8
1979-07-22 12:20:52.330 ,6,0,0.,4.8,9.,4.8,1.,4.8,1.,4.8
1979-07-22 12:20:57.130 ,6,0,0.,4.8,7.,4.8,1.,4.8,2.,4.8
1979-07-22 12:21:01.930 ,6,0,0.,4.8,3.,4.8,1.,4.8,2.,4.8
1979-07-22 12:21:06.730 ,6,0,0.,4.8,1.,4.8,2.,4.8,1.,4.8
1979-07-22 12:21:11.530 ,6,0,0.,4.8,1.,4.8,3.,4.8,0.,4.8
1979-07-22 12:21:16.330 ,6,0,0.,4.8,1.,4.8,3.,4.8,3.,4.8
1979-07-22 12:21:21.130 ,6,0,0.,4.8,3.,4.8,0.,4.8,0.,4.8
1979-07-22 12:21:25.930 ,6,0,0.,4.8,3.,4.8,2.,4.8,1.,4.8
1979-07-22 12:21:30.730 ,6,0,0.,4.8,3.,4.8,1.,4.8,1.,4.8
1979-07-22 12:21:35.530 ,7,0,0.,4.8,3.,4.8,4.,4.8,2.,4.8
1979-07-22 12:21:40.330 ,7,0,0.,4.8,4.,4.8,1.,4.8,2.,4.8
1979-07-22 12:21:45.130 ,7,0,0.,4.8,1.,4.8,0.,4.8,0.,4.8
1979-07-22 12:21:49.930 ,7,0,0.,4.8,0.,4.8,0.,4.8,0.,4.8
1979-07-22 12:21:54.730 ,7,0,0.,4.8,1.,4.8,1.,4.8,0.,4.8
1979-07-22 12:21:59.530 ,7,0,0.,4.8,1.,4.8,0.,4.8,0.,4.8
1979-07-22 12:22:04.330 ,7,0,0.,4.8,0.,4.8,0.,4.8,0.,4.8
1979-07-22 12:22:09.130 ,7,0,0.,4.8,0.,4.8,0.,4.8,1.,4.8
1979-07-22 12:22:13.930 ,7,0,0.,4.8,0.,4.8,0.,4.8,0.,4.8
1979-07-22 12:22:18.730 ,7,0,0.,4.8,0.,4.8,0.,4.8,0.,4.8
1979-07-22 12:22:23.530 ,7,0,0.,4.8,0.,4.8,0.,4.8,0.,4.8
1979-07-22 12:22:28.330 ,7,0,0.,4.8,0.,4.8,0.,4.8,0.,4.8
1979-07-22 12:22:33.130 ,7,0,0.,4.8,1.,4.8,0.,4.8,0.,4.8
1979-07-22 12:22:37.930 ,7,0,0.,4.8,1.,4.8,0.,4.8,0.,4.8
1979-07-22 12:22:42.730 ,7,0,0.,4.8,0.,4.8,0.,4.8,0.,4.8
1979-07-22 12:22:47.530 ,7,0,0.,4.8,0.,4.8,0.,4.8,0.,4.8
1979-07-22 12:22:52.330 ,7,0,0.,4.8,0.,4.8,0.,4.8,0.,4.8
1979-07-22 12:22:57.130 ,7,0,0.,4.8,0.,4.8,0.,4.8,0.,4.8
1979-07-22 12:23:01.930 ,7,0,0.,4.8,0.,4.8,0.,4.8,0.,4.8
1979-07-22 12:23:06.730 ,7,0,0.,4.8,0.,4.8,0.,4.8,0.,4.8
1979-07-22 12:23:11.530 ,6,0,0.,4.8,0.,4.8,0.,4.8,0.,4.8
1979-07-22 12:23:16.330 ,6,0,0.,4.8,2.,4.8,0.,4.8,0.,4.8
1979-07-22 12:23:21.130 ,6,0,0.,4.8,3.,4.8,4.,4.8,0.,4.8
1979-07-22 12:23:25.930 ,6,0,0.,4.8,1.,4.8,2.,4.8,0.,4.8
1979-07-22 12:23:30.730 ,6,0,0.,4.8,7.,4.8,2.,4.8,3.,4.8
1979-07-22 12:23:35.530 ,6,0,0.,4.8,5.,4.8,3.,4.8,1.,4.8
1979-07-22 12:23:40.330 ,6,0,0.,4.8,1.,4.8,1.,4.8,1.,4.8
1979-07-22 12:23:45.130 ,6,0,0.,4.8,1.,4.8,0.,4.8,0.,4.8
1979-07-22 12:23:49.930 ,6,0,0.,4.8,2.,4.8,2.,4.8,1.,4.8
1979-07-22 12:23:54.730 ,6,0,0.,4.8,1.,4.8,1.,4.8,1.,4.8
1979-07-22 12:23:59.530 ,5,0,0.,4.8,3.,4.8,3.,4.8,1.,4.8
1979-07-22 12:24:04.330 ,5,0,0.,4.8,7.,4.8,2.,4.8,0.,4.8
1979-07-22 12:24:09.130 ,5,0,0.,4.8,5.,4.8,4.,4.8,3.,4.8
1979-07-22 12:24:13.930 ,5,0,0.,4.8,4.,4.8,1.,4.8,1.,4.8
1979-07-22 12:24:18.730 ,5,0,0.,4.8,2.,4.8,1.,4.8,1.,4.8
1979-07-22 12:24:23.530 ,5,0,0.,4.8,4.,4.8,3.,4.8,0.,4.8
1979-07-22 12:24:28.330 ,5,0,0.,4.8,6.,4.8,2.,4.8,2.,4.8
1979-07-22 12:24:33.130 ,5,0,0.,4.8,11.,4.8,0.,4.8,2.,4.8
1979-07-22 12:24:37.930 ,5,0,0.,4.8,4.,4.8,1.,4.8,1.,4.8
1979-07-22 12:24:42.730 ,5,0,0.,4.8,3.,4.8,1.,4.8,1.,4.8
1979-07-22 12:24:47.530 ,4,0,0.,4.8,6.,4.8,2.,4.8,0.,4.8
1979-07-22 12:24:52.330 ,4,0,0.,4.8,3.,4.8,1.,4.8,0.,4.8
1979-07-22 12:24:57.130 ,4,0,0.,4.8,5.,4.8,3.,4.8,2.,4.8
1979-07-22 12:25:01.930 ,4,0,0.,4.8,5.,4.8,1.,4.8,0.,4.8
1979-07-22 12:25:06.730 ,4,0,0.,4.8,2.,4.8,4.,4.8,4.,4.8
1979-07-22 12:25:11.530 ,4,0,0.,4.8,4.,4.8,2.,4.8,2.,4.8
1979-07-22 12:25:16.330 ,4,0,0.,4.8,5.,4.8,3.,4.8,0.,4.8
1979-07-22 12:25:21.130 ,4,0,0.,4.8,4.,4.8,2.,4.8,3.,4.8
1979-07-22 12:25:25.930 ,4,0,0.,4.8,4.,4.8,2.,4.8,1.,4.8
1979-07-22 12:25:30.730 ,4,0,0.,4.8,6.,4.8,5.,4.8,1.,4.8
1979-07-22 12:25:35.530 ,3,0,0.,4.8,2.,4.8,1.,4.8,1.,4.8
1979-07-22 12:25:40.330 ,3,0,0.,4.8,2.,4.8,1.,4.8,2.,4.8
1979-07-22 12:25:45.130 ,3,0,0.,4.8,12.,4.8,6.,4.8,1.,4.8
1979-07-22 12:25:49.930 ,3,0,0.,4.8,3.,4.8,4.,4.8,3.,4.8
1979-07-22 12:25:54.730 ,3,0,0.,4.8,6.,4.8,5.,4.8,3.,4.8
1979-07-22 12:25:59.530 ,3,0,0.,4.8,3.,4.8,4.,4.8,1.,4.8
1979-07-22 12:26:04.330 ,3,0,0.,4.8,7.,4.8,5.,4.8,1.,4.8
1979-07-22 12:26:09.130 ,3,0,0.,4.8,7.,4.8,1.,4.8,3.,4.8
1979-07-22 12:26:13.930 ,3,0,0.,4.8,3.,4.8,1.,4.8,0.,4.8
1979-07-22 12:26:18.730 ,3,0,0.,4.8,6.,4.8,4.,4.8,2.,4.8
1979-07-22 12:26:23.530 ,2,0,0.,4.8,4.,4.8,5.,4.8,0.,4.8
1979-07-22 12:26:28.330 ,2,0,0.,4.8,7.,4.8,2.,4.8,1.,4.8
1979-07-22 12:26:33.130 ,2,0,0.,4.8,5.,4.8,1.,4.8,5.,4.8
1979-07-22 12:26:37.930 ,2,0,0.,4.8,9.,4.8,2.,4.8,1.,4.8
1979-07-22 12:26:42.730 ,2,0,0.,4.8,2.,4.8,3.,4.8,0.,4.8
1979-07-22 12:26:47.530 ,2,0,0.,4.8,10.,4.8,3.,4.8,3.,4.8
1979-07-22 12:26:52.330 ,2,0,0.,4.8,3.,4.8,1.,4.8,1.,4.8
1979-07-22 12:26:57.130 ,2,0,0.,4.8,9.,4.8,2.,4.8,2.,4.8
1979-07-22 12:27:01.930 ,2,0,0.,4.8,4.,4.8,1.,4.8,0.,4.8
1979-07-22 12:27:06.730 ,2,0,0.,4.8,8.,4.8,3.,4.8,1.,4.8
1979-07-22 12:27:11.530 ,1,0,0.,4.8,7.,4.8,2.,4.8,2.,4.8
1979-07-22 12:27:16.330 ,1,0,1.,4.8,6.,4.8,3.,4.8,1.,4.8
1979-07-22 12:27:21.130 ,1,0,0.,4.8,6.,4.8,1.,4.8,5.,4.8
1979-07-22 12:27:25.930 ,1,0,0.,4.8,9.,4.8,2.,4.8,1.,4.8
1979-07-22 12:27:30.730 ,1,0,0.,4.8,3.,4.8,2.,4.8,3.,4.8
1979-07-22 12:27:35.530 ,1,0,0.,4.8,7.,4.8,1.,4.8,0.,4.8
1979-07-22 12:27:40.330 ,1,0,0.,4.8,4.,4.8,3.,4.8,3.,4.8
1979-07-22 12:27:45.130 ,1,0,0.,4.8,6.,4.8,3.,4.8,0.,4.8
1979-07-22 12:27:49.930 ,1,0,0.,4.8,1.,4.8,4.,4.8,3.,4.8
1979-07-22 12:27:54.730 ,1,0,0.,4.8,2.,4.8,6.,4.8,1.,4.8
1979-07-22 12:27:59.530 ,0,0,0.,4.8,4.,4.8,0.,4.8,4.,4.8
1979-07-22 12:28:04.330 ,0,0,0.,4.8,5.,4.8,3.,4.8,2.,4.8
1979-07-22 12:28:09.130 ,0,0,0.,4.8,1.,4.8,0.,4.8,1.,4.8
1979-07-22 12:28:13.930 ,0,0,0.,4.8,2.,4.8,1.,4.8,0.,4.8
1979-07-22 12:28:18.730 ,0,0,0.,4.8,4.,4.8,1.,4.8,1.,4.8
1979-07-22 12:28:23.530 ,0,0,0.,4.8,4.,4.8,2.,4.8,3.,4.8
1979-07-22 12:28:28.330 ,0,0,0.,4.8,7.,4.8,0.,4.8,0.,4.8
1979-07-22 12:28:33.130 ,0,0,0.,4.8,2.,4.8,1.,4.8,0.,4.8
1979-07-22 12:28:37.930 ,0,0,0.,4.8,1.,4.8,2.,4.8,1.,4.8
1979-07-22 12:28:42.730 ,0,0,0.,4.8,6.,4.8,0.,4.8,0.,4.8
1979-07-22 12:28:47.530 ,0,0,0.,4.8,2.,4.8,0.,4.8,0.,4.8
1979-07-22 12:28:52.330 ,0,0,0.,4.8,4.,4.8,1.,4.8,1.,4.8
1979-07-22 12:28:57.130 ,0,0,0.,4.8,1.,4.8,0.,4.8,1.,4.8
1979-07-22 12:29:01.930 ,0,0,0.,4.8,6.,4.8,0.,4.8,0.,4.8
1979-07-22 12:29:06.730 ,0,0,0.,4.8,3.,4.8,2.,4.8,1.,4.8
1979-07-22 12:29:11.530 ,0,0,0.,4.8,2.,4.8,2.,4.8,0.,4.8
1979-07-22 12:29:16.330 ,0,0,0.,4.8,5.,4.8,2.,4.8,1.,4.8
1979-07-22 12:29:21.130 ,0,0,0.,4.8,2.,4.8,2.,4.8,0.,4.8
1979-07-22 12:29:25.930 ,0,0,0.,4.8,2.,4.8,0.,4.8,1.,4.8
1979-07-22 12:29:30.730 ,0,0,0.,4.8,3.,4.8,1.,4.8,1.,4.8
1979-07-22 12:29:35.530 ,1,0,0.,4.8,3.,4.8,0.,4.8,2.,4.8
1979-07-22 12:29:40.330 ,1,0,0.,4.8,5.,4.8,1.,4.8,1.,4.8
1979-07-22 12:29:45.130 ,1,0,0.,4.8,6.,4.8,2.,4.8,2.,4.8
1979-07-22 12:29:49.930 ,1,0,0.,4.8,9.,4.8,1.,4.8,3.,4.8
1979-07-22 12:29:54.730 ,1,0,0.,4.8,5.,4.8,2.,4.8,5.,4.8
1979-07-22 12:29:59.530 ,1,0,0.,4.8,2.,4.8,5.,4.8,2.,4.8
1979-07-22 12:30:04.330 ,1,0,0.,4.8,2.,4.8,1.,4.8,2.,4.8
1979-07-22 12:30:09.130 ,1,0,0.,4.8,7.,4.8,3.,4.8,4.,4.8
1979-07-22 12:30:13.930 ,1,0,0.,4.8,2.,4.8,5.,4.8,0.,4.8
1979-07-22 12:30:18.730 ,1,0,0.,4.8,8.,4.8,3.,4.8,1.,4.8
1979-07-22 12:30:23.530 ,2,0,0.,4.8,2.,4.8,2.,4.8,0.,4.8
1979-07-22 12:30:28.330 ,2,0,0.,4.8,9.,4.8,4.,4.8,1.,4.8
1979-07-22 12:30:33.130 ,2,0,0.,4.8,9.,4.8,4.,4.8,2.,4.8
1979-07-22 12:30:37.930 ,2,0,0.,4.8,7.,4.8,2.,4.8,4.,4.8
1979-07-22 12:30:42.730 ,2,0,0.,4.8,7.,4.8,4.,4.8,3.,4.8
1979-07-22 12:30:47.530 ,2,0,0.,4.8,6.,4.8,0.,4.8,3.,4.8
1979-07-22 12:30:52.330 ,2,0,0.,4.8,7.,4.8,1.,4.8,3.,4.8
1979-07-22 12:30:57.130 ,2,0,0.,4.8,3.,4.8,5.,4.8,1.,4.8
1979-07-22 12:31:01.930 ,2,0,0.,4.8,5.,4.8,6.,4.8,2.,4.8
1979-07-22 12:31:06.730 ,2,0,0.,4.8,5.,4.8,2.,4.8,1.,4.8
1979-07-22 12:31:11.530 ,3,0,0.,4.8,0.,4.8,3.,4.8,3.,4.8
1979-07-22 12:31:16.330 ,3,0,0.,4.8,2.,4.8,3.,4.8,2.,4.8
1979-07-22 12:31:21.130 ,3,0,0.,4.8,6.,4.8,2.,4.8,4.,4.8
1979-07-22 12:31:25.930 ,3,0,0.,4.8,7.,4.8,1.,4.8,1.,4.8
1979-07-22 12:31:30.730 ,3,0,0.,4.8,7.,4.8,3.,4.8,1.,4.8
1979-07-22 12:31:35.530 ,3,0,0.,4.8,7.,4.8,2.,4.8,1.,4.8
1979-07-22 12:31:40.330 ,3,0,0.,4.8,3.,4.8,5.,4.8,1.,4.8
1979-07-22 12:31:45.130 ,3,0,0.,4.8,6.,4.8,3.,4.8,2.,4.8
1979-07-22 12:31:49.930 ,3,0,0.,4.8,4.,4.8,1.,4.8,0.,4.8
1979-07-22 12:31:54.730 ,3,0,0.,4.8,3.,4.8,2.,4.8,2.,4.8
1979-07-22 12:31:59.530 ,4,0,0.,4.8,9.,4.8,2.,4.8,2.,4.8
1979-07-22 12:32:04.330 ,4,0,0.,4.8,8.,4.8,1.,4.8,2.,4.8
1979-07-22 12:32:09.130 ,4,0,0.,4.8,6.,4.8,1.,4.8,4.,4.8
1979-07-22 12:32:13.930 ,4,0,0.,4.8,4.,4.8,2.,4.8,1.,4.8
1979-07-22 12:32:18.730 ,4,0,0.,4.8,3.,4.8,1.,4.8,0.,4.8
1979-07-22 12:32:23.530 ,4,0,0.,4.8,6.,4.8,0.,4.8,0.,4.8
1979-07-22 12:32:28.330 ,4,0,0.,4.8,2.,4.8,0.,4.8,1.,4.8
1979-07-22 12:32:33.130 ,4,0,0.,4.8,6.,4.8,0.,4.8,0.,4.8
1979-07-22 12:32:37.930 ,4,0,0.,4.8,5.,4.8,2.,4.8,3.,4.8
1979-07-22 12:32:42.730 ,4,0,0.,4.8,4.,4.8,2.,4.8,0.,4.8
1979-07-22 12:32:47.530 ,5,0,0.,4.8,5.,4.8,1.,4.8,1.,4.8
1979-07-22 12:32:52.330 ,5,0,0.,4.8,4.,4.8,1.,4.8,4.,4.8
1979-07-22 12:32:57.130 ,5,0,0.,4.8,1.,4.8,2.,4.8,3.,4.8
1979-07-22 12:33:01.930 ,5,0,1.,4.8,1.,4.8,0.,4.8,1.,4.8
1979-07-22 12:33:06.730 ,5,0,0.,4.8,4.,4.8,1.,4.8,3.,4.8
1979-07-22 12:33:11.530 ,5,0,0.,4.8,2.,4.8,2.,4.8,0.,4.8
1979-07-22 12:33:16.330 ,5,0,0.,4.8,2.,4.8,1.,4.8,0.,4.8
1979-07-22 12:33:21.130 ,5,0,0.,4.8,5.,4.8,2.,4.8,0.,4.8
1979-07-22 12:33:25.930 ,5,0,0.,4.8,1.,4.8,1.,4.8,0.,4.8